Regional Weather Roundup
Issued by NWS Charleston, WV

Home | Current Version | Previous Version | Graphics & Text | Print | Product List | Glossary On
Versions: 1 2 3 4 5 6 7 8 9 10 11 12 13 14 15 16 17 18 19 20 21 22 23 24 25 26 27 28 29 30 31 32 33 34 35 36 37 38 39 40 41 42 43 44 45 46 47 48 49
762
ASUS41 KRLX 080710
RWRRLX
West Virginia Regional Weather Roundup
National Weather Service Charleston WV
200 AM EST MON FEB 08 2016

Note: "fair" indicates few or no clouds below 12,000 feet with no
significant weather and/or obstructions to visibility.

WVZ003-080800-
Northern Panhandle of West Virginia

CITY           SKY/WX    TMP DP  RH WIND       PRES   REMARKS
WHEELING         N/A     38  22  52 SE7       29.75F
$$

WVZ009-080800-
Northwest West Virginia

CITY           SKY/WX    TMP DP  RH WIND       PRES   REMARKS
PARKERSBURG      N/A     37  24  59 S5        29.79F
$$

WVZ006-080800-
Western West Virginia

CITY           SKY/WX    TMP DP  RH WIND       PRES   REMARKS
HUNTINGTON     MOCLDY    37  23  56 S5        29.77F
$$

WVZ015-080800-
West Central West Virginia

CITY           SKY/WX    TMP DP  RH WIND       PRES   REMARKS
CHARLESTON     MOCLDY    33  25  72 CALM      29.79F
$$

WVZ022-031-080800-
North Central West Virginia

CITY           SKY/WX    TMP DP  RH WIND       PRES   REMARKS
CLARKSBURG       N/A     28  23  81 CALM      29.78F
MORGANTOWN       N/A     32  22  66 CALM      29.79F
$$

WVZ025-035-042-045-080800-
Southern West Virginia

CITY           SKY/WX    TMP DP  RH WIND       PRES   REMARKS
BECKLEY          N/A     32  20  61 SW3       29.79F
LOGAN          MOCLDY    37  23  56 S3        29.79F
BLUEFIELD        N/A     29  19  66 W7        29.79F
LEWISBURG        N/A     28  23  82 CALM      29.79F
$$

WVZ047-080800-
Northern Mountains of West Virginia

CITY           SKY/WX    TMP DP  RH WIND       PRES   REMARKS
ELKINS           N/A     21  17  84 CALM      29.79F
$$

WVZ052-080800-
Eastern Panhandle of West Virginia

CITY           SKY/WX    TMP DP  RH WIND       PRES   REMARKS
MARTINSBURG      N/A     22  19  89 CALM      29.82F
PETERSBURG       N/A     25  24  93 CALM      29.84F
$$




USA.gov is the U.S. government's official web portal to all federal, state and local government web resources and services.